Baton Rouge, LA

3:08 PM CDT on October 16, 2019 (GMT -0500)
Baton Rouge Metro-Ryan

Weather History for KBTR - August, 2019

Change the Weather History Date:

Monday, August 12, 2019

  Actual Average Record
Temperature  
Mean Temperature 88 °F 83 °F  
Max Temperature 96 °F 93 °F 103 °F (2007)
Min Temperature 79 °F 74 °F 59 °F (1967)
Degree Days  
Heating Degree Days 0 0  
Month to date heating degree days 0 0  
Since 1 June heating degree days 0 0  
Since 1 July heating degree days 0 0  
Cooling Degree Days 23 18  
Month to date cooling degree days 245 216  
Year to date cooling degree days 1979 1821  
Since 1 June cooling degree days 1308 1256  
Growing Degree Days 38 (Base 50)    
Moisture  
Dew Point 76 °F    
Average Humidity 69    
Maximum Humidity 91    
Minimum Humidity 46    
Precipitation  
Precipitation 0.00 in 0.19 in 11.24 in (2016)
Month to date precipitation 0.42 2.31  
Year to date precipitation 41.84 38.20  
Snow  
Snow 0.00 in - - ()
Month to date snowfall 0.0  
Since 1 June snowfall 0.0  
Since 1 July snowfall 0.0  
Snow Depth 0.00 in    
Sea Level Pressure  
Sea Level Pressure 29.93 in    
Wind  
Wind Speed 6 mph (West)    
Max Wind Speed 12 mph    
Max Gust Speed 24 mph    
Visibility 9 miles    
Events      
T = Trace of Precipitation, MM = Missing Value Source: NWS Daily Summary

Daily Weather History Graph

Daily Weather History Graph

Search for Another Location

Airport or City:

Astronomy

Aug. 12, 2019 Rise Set
Actual Time 6:29 AM CDT 7:49 PM CDT
Civil Twilight 6:03 AM CDT 8:14 PM CDT
Nautical Twilight 5:33 AM CDT 8:45 PM CDT
Astronomical Twilight 5:01 AM CDT 9:16 PM CDT
Moon 6:10 PM CDT (8/12) 3:48 AM CDT (8/12)
Length of Visible Light 14h 11m
Length of Day
13h 20m
Waxing Gibbous, 93% of the Moon is Illuminated
Aug 12
Waxing Gibbous
Aug 15
Full
Aug 23
Last Quarter
Aug 30
New
Sep 5
First Quarter

Hourly Weather History & Observations

Time (CDT) Temp. Heat Index Dew Point Humidity Pressure Visibility Wind Dir Wind Speed Gust Speed Precip Events Conditions
1:53 AM 81.0 °F 86.7 °F 75.0 °F 82% 29.93 in 10.0 mi South 5.8 mph - N/A   Clear
2:53 AM 81.0 °F 87.3 °F 75.9 °F 85% 29.92 in 10.0 mi SW 5.8 mph - N/A   Clear
3:53 AM 80.1 °F 85.4 °F 75.9 °F 87% 29.93 in 10.0 mi West 4.6 mph - N/A   Clear
4:53 AM 80.1 °F 85.4 °F 75.9 °F 87% 29.94 in 10.0 mi West 4.6 mph - N/A   Clear
5:53 AM 80.1 °F 85.8 °F 77.0 °F 90% 29.95 in 9.0 mi Calm Calm - N/A   Clear
6:53 AM 80.1 °F 85.4 °F 75.9 °F 87% 29.96 in 6.0 mi Calm Calm - N/A   Clear
7:53 AM 82.9 °F 92.8 °F 78.1 °F 85% 29.98 in 7.0 mi West 4.6 mph - N/A   Haze
8:51 AM 84.2 °F 96.1 °F 78.8 °F 84% 29.99 in 10.0 mi WNW 10.4 mph - N/A   Haze
8:53 AM 84.9 °F 96.6 °F 78.1 °F 80% 29.99 in 10.0 mi WNW 9.2 mph - N/A   Haze
9:53 AM 88.0 °F 100.2 °F 77.0 °F 70% 29.99 in 6.0 mi West 9.2 mph - N/A   Haze
10:00 AM 89.1 °F 101.4 °F 77.0 °F 67% 30.00 in 5.0 mi West 8.1 mph - N/A   Haze
10:53 AM 90.0 °F 102.5 °F 77.0 °F 65% 29.99 in 7.0 mi West 9.2 mph - N/A   Haze
11:53 AM 91.9 °F 103.9 °F 75.9 °F 59% 29.99 in 10.0 mi Variable 5.8 mph - N/A   Haze
12:53 PM 93.0 °F 104.6 °F 75.0 °F 56% 29.96 in 10.0 mi West 5.8 mph - N/A   Partly Cloudy
1:53 PM 96.1 °F 105.6 °F 73.0 °F 47% 29.95 in 10.0 mi Variable 6.9 mph - N/A   Partly Cloudy
2:53 PM 95.0 °F 103.2 °F 72.0 °F 47% 29.93 in 10.0 mi Variable 3.5 mph - N/A   Clear
3:53 PM 95.0 °F 105.2 °F 73.9 °F 50% 29.90 in 10.0 mi Variable 6.9 mph - N/A   Partly Cloudy
4:53 PM 95.0 °F 105.2 °F 73.9 °F 50% 29.88 in 10.0 mi West 10.4 mph - N/A   Partly Cloudy
5:53 PM 93.9 °F 104.0 °F 73.9 °F 52% 29.87 in 10.0 mi West 8.1 mph - N/A   Clear
6:53 PM 91.9 °F 100.7 °F 73.0 °F 54% 29.87 in 10.0 mi WSW 6.9 mph - N/A   Clear
7:53 PM 88.0 °F 96.5 °F 73.9 °F 63% 29.87 in 10.0 mi WSW 5.8 mph - N/A   Clear
8:53 PM 88.0 °F 97.5 °F 75.0 °F 65% 29.88 in 10.0 mi Calm Calm - N/A   Clear
9:53 PM 84.9 °F 95.3 °F 77.0 °F 77% 29.90 in 10.0 mi Calm Calm - N/A   Clear
10:53 PM 84.9 °F 95.3 °F 77.0 °F 77% 29.90 in 10.0 mi SW 8.1 mph - N/A   Clear
11:53 PM 84.0 °F 93.7 °F 77.0 °F 79% 29.90 in 10.0 mi WSW 6.9 mph - N/A   Clear